1501952400.16,30315,28.06,74552.8,13.31,-11.11,-11.33,0,*49
1501952401.4,30316,28.06,74556.5,13.31,-10.93,-11.19,0,*49
1501952402.65,30317,28.06,74552.3,13.31,-10.85,-11.07,0,*40
1501952403.88,30318,28.06,74552.8,13.31,-11.11,-11.23,0,*45
1501952405.11,30319,28.06,74556.8,13.31,-10.85,-11.11,0,*49
1501952406.34,30320,28.06,74556.0,13.31,-10.85,-11.11,0,*43
1501952407.54,30321,28.06,74554.3,13.33,-10.93,-11.23,0,*46
1501952408.74,30322,28.06,74552.3,13.33,-10.97,-11.19,0,*48
1501952409.95,30323,28.06,74556.0,13.33,-10.93,-11.11,0,*45
1501952411.15,30324,28.06,74554.0,13.33,-10.93,-11.11,0,*42
1501952412.38,30325,28.06,74554.5,13.33,-11.07,-11.19,0,*47
1501952413.6,30326,28.06,74556.3,13.33,-11.07,-11.19,0,*44
1501952414.82,30327,28.06,74556.5,13.33,-11.19,-11.37,0,*46
1501952416.04,30328,28.13,74558.5,13.33,-11.19,-11.33,0,*4D
1501952417.29,30329,28.06,74556.5,13.31,-11.11,-11.33,0,*46
1501952418.55,30330,28.06,74554.5,13.31,-11.07,-11.23,0,*48
1501952419.79,30331,28.06,74552.0,13.31,-11.11,-11.33,0,*4F
1501952421.03,30332,28.06,74556.8,13.31,-10.97,-11.11,0,*43
1501952422.24,30333,28.06,74558.3,13.33,-10.97,-11.23,0,*41
1501952423.43,30334,28.13,74556.0,13.33,-10.85,-11.19,0,*4C
1501952424.67,30335,28.06,74554.0,13.31,-10.97,-11.19,0,*4C
1501952425.93,30336,28.06,74554.0,13.31,-11.07,-11.23,0,*4E
1501952427.18,30337,28.06,74554.0,13.31,-10.85,-11.07,0,*42
1501952428.44,30338,28.06,74556.5,13.31,-10.79,-10.97,0,*46
1501952429.65,30339,28.06,74558.3,13.33,-10.57,-10.93,0,*4D
1501952430.88,30340,28.06,74558.8,13.33,-10.79,-10.97,0,*4B
1501952432.11,30341,28.06,74556.5,13.33,-10.71,-10.97,0,*42
1501952433.34,30342,28.06,74556.0,13.33,-10.71,-10.97,0,*41
1501952434.57,30343,28.06,74556.3,13.33,-10.79,-10.97,0,*48
1501952435.8,30344,28.06,74554.8,13.33,-10.79,-10.97,0,*4F
1501952437.03,30345,28.06,74556.0,13.33,-10.71,-10.93,0,*42
1501952438.27,30346,28.06,74556.8,13.33,-10.63,-10.97,0,*46
1501952439.5,30347,28.13,74558.0,13.33,-10.67,-10.93,0,*47
1501952440.74,30348,28.06,74554.8,13.33,-10.67,-10.97,0,*4C
1501952441.94,30349,28.06,74554.0,13.33,-10.57,-10.97,0,*4E
1501952443.17,30350,28.06,74554.8,13.33,-10.79,-10.97,0,*4A
1501952444.43,30351,28.06,74556.0,13.35,-10.67,-10.89,0,*4D
1501952445.65,30352,28.06,74554.5,13.35,-10.53,-10.89,0,*49
1501952446.85,30353,28.06,74554.3,13.33,-10.53,-10.93,0,*45
1501952448.1,30354,28.06,74558.5,13.35,-10.67,-10.93,0,*43
1501952449.35,30355,28.06,74554.5,13.35,-10.75,-10.89,0,*4A
1501952450.61,30356,28.06,74554.3,13.35,-10.63,-10.93,0,*45
1501952451.83,30357,28.06,74556.5,13.35,-10.53,-10.93,0,*47
1501952453.06,30358,28.06,74554.0,13.33,-10.67,-10.93,0,*49
1501952454.29,30359,28.06,74556.0,13.33,-10.67,-10.93,0,*48
1501952455.55,30360,28.06,74554.8,13.35,-10.63,-10.93,0,*40
1501952456.8,30361,28.06,74556.8,13.35,-10.75,-11.01,0,*4C
1501952458.03,30362,28.13,74558.8,13.37,-10.79,-11.01,0,*41
1501952459.28,30363,28.06,74554.0,13.33,-10.79,-11.07,0,*42
1501952460.54,30364,28.06,74558.8,13.35,-10.67,-11.01,0,*4A
1501952461.77,30365,28.06,74556.3,13.33,-10.93,-11.07,0,*40
1501952463.02,30366,28.06,74552.3,13.35,-10.79,-11.01,0,*47
1501952464.27,30367,28.06,74552.8,13.35,-10.67,-10.89,0,*48
1501952465.55,30368,28.06,74554.8,13.35,-10.63,-10.79,0,*4C
1501952466.81,30369,28.13,74558.3,13.35,-10.89,-11.07,0,*41
1501952468.03,30370,28.06,74552.8,13.35,-11.01,-11.19,0,*47
1501952469.28,30371,28.06,74552.5,13.35,-11.07,-11.15,0,*4C
1501952470.5,30372,28.06,74552.0,13.35,-10.89,-11.15,0,*48
1501952471.76,30373,28.13,74556.8,13.35,-10.93,-11.07,0,*41
1501952472.99,30374,28.06,74554.5,13.33,-11.07,-11.19,0,*43
1501952474.21,30375,28.06,74554.8,13.33,-11.07,-11.19,0,*42
1501952475.41,30376,28.06,74552.5,13.33,-11.11,-11.19,0,*46
1501952476.63,30377,28.06,74552.8,13.33,-11.19,-11.33,0,*47
1501952477.87,30378,28.06,74552.8,13.35,-11.15,-11.33,0,*42
1501952479.09,30379,28.06,74552.5,13.35,-11.15,-11.19,0,*4B
1501952480.35,30380,28.06,74552.0,13.35,-11.07,-11.15,0,*42
1501952481.58,30381,28.06,74552.3,13.35,-11.01,-11.15,0,*45
1501952482.83,30382,28.06,74552.3,13.35,-11.07,-11.19,0,*4C
1501952484.02,30383,28.06,74552.5,13.33,-11.11,-11.23,0,*45
1501952485.25,30384,28.06,74554.5,13.35,-11.01,-11.19,0,*4C
1501952486.48,30385,28.06,74554.3,13.33,-11.11,-11.37,0,*46
1501952487.67,30386,28.06,74554.3,13.33,-11.11,-11.19,0,*49
1501952488.92,30387,28.06,74554.5,13.35,-11.15,-11.33,0,*42
1501952490.14,30388,28.06,74552.3,13.33,-11.15,-11.29,0,*40
1501952491.34,30389,28.06,74552.0,13.33,-11.19,-11.23,0,*47
1501952492.57,30390,28.13,74552.8,13.33,-11.07,-11.19,0,*49
1501952493.82,30391,28.06,74552.0,13.35,-11.07,-11.15,0,*42
1501952495.04,30392,28.06,74554.3,13.33,-11.19,-11.37,0,*48
1501952496.26,30393,28.13,74556.3,13.35,-11.19,-11.41,0,*4E
1501952497.51,30394,28.06,74552.3,13.33,-11.33,-11.37,0,*46
1501952498.76,30395,28.06,74554.0,13.35,-11.19,-11.29,0,*46
1501952499.98,30396,28.06,74552.8,13.33,-11.23,-11.37,0,*45
1501952501.21,30397,28.06,74550.8,13.33,-11.23,-11.37,0,*44
1501952502.43,30398,28.06,74550.3,13.33,-11.19,-11.37,0,*42
1501952503.68,30399,28.06,74552.0,13.33,-11.33,-11.55,0,*4F
1501952504.9,30400,28.06,74554.5,13.33,-11.11,-11.33,0,*48
1501952506.1,30401,28.13,74552.8,13.33,-11.11,-11.23,0,*48
1501952507.32,30402,28.13,74554.5,13.33,-11.23,-11.33,0,*4B
1501952508.57,30403,28.06,74552.0,13.33,-11.33,-11.33,0,*4B
1501952509.79,30404,28.06,74554.8,13.33,-11.33,-11.45,0,*4D
1501952511.08,30405,28.13,74554.5,13.31,-11.33,-11.55,0,*4F
1501952512.33,30406,28.06,74550.8,13.31,-11.33,-11.45,0,*4D
1501952513.59,30407,28.06,74552.5,13.31,-11.23,-11.33,0,*4C
1501952514.84,30408,28.13,74552.8,13.31,-11.23,-11.37,0,*47
1501952516.12,30409,28.06,74550.0,13.31,-11.33,-11.37,0,*47
1501952517.4,30410,28.13,74552.8,13.31,-11.37,-11.55,0,*4F
1501952518.63,30411,28.13,74554.3,13.29,-11.41,-11.73,0,*42
1501952519.87,30412,28.06,74552.0,13.29,-11.41,-11.51,0,*41
1501952521.1,30413,28.06,74552.0,13.29,-11.23,-11.37,0,*44
1501952522.3,30414,28.13,74552.5,13.29,-11.11,-11.23,0,*47
1501952523.5,30415,28.06,74550.3,13.29,-11.15,-11.23,0,*42
1501952524.73,30416,28.13,74552.3,13.29,-11.23,-11.37,0,*41
1501952525.96,30417,28.13,74554.8,13.29,-11.15,-11.29,0,*4A
1501952527.19,30418,28.13,74554.3,13.29,-11.15,-11.29,0,*45
1501952528.4,30419,28.06,74552.3,13.29,-11.23,-11.41,0,*4F
1501952529.66,30420,28.13,74552.5,13.31,-11.23,-11.37,0,*4D
1501952530.92,30421,28.13,74554.5,13.29,-11.29,-11.37,0,*4F
1501952532.15,30422,28.06,74552.0,13.29,-11.15,-11.29,0,*4C
1501952533.35,30423,28.06,74548.8,13.29,-11.15,-11.23,0,*47
1501952534.56,30424,28.13,74552.5,13.29,-11.01,-11.15,0,*40
1501952535.81,30425,28.13,74554.8,13.27,-11.15,-11.29,0,*45
1501952537.02,30426,28.13,74552.8,13.29,-11.01,-11.23,0,*47
1501952538.23,30427,28.06,74554.0,13.29,-10.97,-11.11,0,*49
1501952539.44,30428,28.13,74554.8,13.29,-10.97,-11.23,0,*47
1501952540.67,30429,28.06,74554.0,13.29,-11.11,-11.29,0,*43
1501952541.89,30430,28.06,74554.8,13.29,-11.19,-11.33,0,*48
1501952543.12,30431,28.13,74558.3,13.29,-11.23,-11.37,0,*44
1501952544.37,30432,28.06,74552.8,13.29,-11.29,-11.51,0,*4D
1501952545.63,30433,28.06,74552.5,13.27,-11.41,-11.55,0,*48
1501952546.86,30434,28.06,74552.0,13.25,-11.23,-11.37,0,*4D
1501952548.11,30435,28.06,74554.3,13.25,-11.37,-11.51,0,*49
1501952549.36,30436,28.06,74554.5,13.27,-11.45,-11.77,0,*49
1501952550.64,30437,28.13,74554.5,13.27,-11.59,-11.85,0,*48
1501952551.91,30438,28.13,74554.5,13.27,-11.59,-11.85,0,*47
1501952553.17,30439,28.06,74552.8,13.25,-11.51,-11.67,0,*40
1501952554.43,30440,28.13,74556.5,13.25,-11.67,-11.93,0,*40
1501952555.68,30441,28.13,74552.3,13.25,-11.51,-11.67,0,*4F
1501952556.92,30442,28.06,74554.3,13.25,-11.45,-11.59,0,*44
1501952558.15,30443,28.13,74552.5,13.25,-11.37,-11.45,0,*4D
1501952559.4,30444,28.13,74554.8,13.25,-11.37,-11.51,0,*4F
1501952560.65,30445,28.06,74552.0,13.25,-11.33,-11.37,0,*4A
1501952561.9,30446,28.13,74554.3,13.25,-11.33,-11.37,0,*49
1501952563.15,30447,28.13,74554.5,13.25,-11.37,-11.51,0,*4C
1501952564.39,30448,28.13,74554.5,13.23,-11.45,-11.59,0,*48
1501952565.64,30449,28.06,74550.3,13.23,-11.33,-11.59,0,*48
1501952566.87,30450,28.13,74552.3,13.23,-11.45,-11.51,0,*49
1501952568.1,30451,28.13,74552.3,13.23,-11.37,-11.45,0,*48
1501952569.3,30452,28.13,74554.5,13.23,-11.23,-11.45,0,*4E
1501952570.54,30453,28.13,74554.5,13.21,-11.23,-11.41,0,*49
1501952571.77,30454,28.06,74552.0,13.23,-11.45,-11.67,0,*48
1501952573.01,30455,28.13,74554.3,13.23,-11.45,-11.59,0,*44
1501952574.26,30456,28.06,74550.5,13.23,-11.37,-11.51,0,*4A
1501952575.51,30457,28.13,74554.5,13.23,-11.59,-11.77,0,*47
1501952576.76,30458,28.13,74552.5,13.23,-11.51,-11.59,0,*4C
1501952578.01,30459,28.13,74552.5,13.23,-11.37,-11.59,0,*4D
1501952579.26,30460,28.13,74554.8,13.23,-11.33,-11.59,0,*43
1501952580.54,30461,28.06,74548.8,13.21,-11.51,-11.55,0,*48
1501952581.8,30462,28.13,74550.5,13.21,-11.37,-11.41,0,*4E
1501952583.02,30463,28.13,74552.0,13.23,-11.19,-11.37,0,*40
1501952584.25,30464,28.13,74554.3,13.21,-11.15,-11.23,0,*4C
1501952585.45,30465,28.13,74552.3,13.23,-10.85,-11.11,0,*46
1501952586.65,30466,28.13,74554.3,13.23,-10.97,-11.11,0,*46
1501952587.88,30467,28.06,74548.0,13.21,-10.89,-11.15,0,*4E
1501952589.11,30468,28.13,74556.8,13.23,-11.07,-11.23,0,*41
1501952590.34,30469,28.13,74554.3,13.21,-11.23,-11.41,0,*40
1501952591.6,30470,28.13,74554.3,13.21,-11.23,-11.37,0,*49
1501952592.86,30471,28.13,74552.8,13.21,-11.29,-11.41,0,*43
1501952594.08,30472,28.13,74554.5,13.23,-11.11,-11.33,0,*4C
1501952595.34,30473,28.13,74550.8,13.21,-11.15,-11.29,0,*40
1501952596.57,30474,28.13,74554.3,13.23,-11.07,-11.23,0,*4C
1501952597.82,30475,28.06,74548.0,13.23,-11.37,-11.51,0,*4B
1501952599.07,30476,28.13,74550.8,13.21,-11.41,-11.51,0,*4B
1501952600.36,30477,28.13,74554.8,13.21,-11.29,-11.51,0,*44
1501952601.58,30478,28.13,74554.0,13.23,-11.19,-11.37,0,*4A
1501952602.83,30479,28.13,74554.0,13.21,-11.23,-11.37,0,*40
1501952604.03,30480,28.13,74552.0,13.23,-11.11,-11.23,0,*40
1501952605.26,30481,28.13,74552.5,13.21,-11.01,-11.23,0,*42
1501952606.49,30482,28.13,74552.5,13.21,-11.11,-11.23,0,*40
1501952607.72,30483,28.13,74550.0,13.21,-11.11,-11.15,0,*44
1501952608.95,30484,28.13,74552.0,13.23,-11.07,-11.11,0,*42
1501952610.18,30485,28.13,74552.3,13.21,-11.11,-11.15,0,*42
1501952611.41,30486,28.13,74554.3,13.21,-11.01,-11.23,0,*45
1501952612.64,30487,28.13,74550.8,13.21,-11.11,-11.23,0,*45
1501952613.87,30488,28.13,74548.8,13.21,-11.15,-11.23,0,*4E
1501952615.13,30489,28.13,74552.3,13.21,-11.23,-11.29,0,*40
1501952616.33,30490,28.13,74552.5,13.23,-11.19,-11.23,0,*49
1501952617.55,30491,28.13,74550.3,13.21,-11.11,-11.23,0,*42
1501952618.78,30492,28.13,74552.3,13.21,-11.11,-11.23,0,*41
1501952620.01,30493,28.13,74554.0,13.21,-11.11,-11.23,0,*40
1501952621.24,30494,28.13,74550.8,13.21,-11.11,-11.15,0,*42
1501952622.47,30495,28.13,74550.8,13.21,-11.11,-11.15,0,*43
1501952623.69,30496,28.13,74552.0,13.21,-11.11,-11.11,0,*44
1501952624.93,30497,28.13,74550.0,13.21,-11.01,-11.15,0,*40
1501952626.16,30498,28.13,74548.8,13.21,-11.23,-11.23,0,*4A
1501952627.39,30499,28.13,74550.8,13.21,-11.23,-11.15,0,*4E
1501952628.62,30500,28.13,74552.5,13.21,-11.23,-11.11,0,*4B
1501952629.85,30501,28.13,74550.0,13.21,-11.15,-11.15,0,*4B
1501952631.08,30502,28.13,74550.8,13.21,-11.23,-11.15,0,*4D
1501952632.31,30503,28.13,74550.0,13.21,-11.15,-11.15,0,*49
1501952633.54,30504,28.13,74550.5,13.21,-11.15,-11.11,0,*4A
1501952634.74,30505,28.13,74550.0,13.19,-11.15,-10.97,0,*4F
1501952635.94,30506,28.13,74552.0,13.19,-11.15,-11.11,0,*43
1501952637.14,30507,28.13,74550.3,13.19,-11.15,-11.01,0,*43
1501952638.34,30508,28.13,74550.0,13.19,-11.15,-11.01,0,*4C
1501952639.56,30509,28.13,74554.5,13.19,-11.19,-11.07,0,*47
1501952640.77,30510,28.13,74548.3,13.19,-11.15,-10.97,0,*4B
1501952641.99,30511,28.13,74550.5,13.17,-11.15,-10.93,0,*40
1501952643.19,30512,28.13,74548.0,13.19,-11.15,-10.85,0,*4A
1501952644.38,30513,28.13,74548.3,13.19,-11.11,-10.85,0,*4F
1501952645.64,30514,28.13,74546.8,13.17,-11.01,-10.79,0,*44
1501952646.87,30515,28.13,74550.5,13.19,-11.01,-10.75,0,*47
1501952648.13,30516,28.13,74546.5,13.17,-11.07,-10.89,0,*4F
1501952649.35,30517,28.13,74546.8,13.17,-11.15,-10.89,0,*4D
1501952650.56,30518,28.13,74548.8,13.19,-11.23,-10.89,0,*49
1501952651.81,30519,28.13,74546.5,13.17,-11.33,-10.93,0,*4C
1501952653.01,30520,28.13,74544.5,13.19,-11.41,-10.93,0,*4D
1501952654.24,30521,28.13,74544.5,13.17,-11.41,-10.89,0,*49
1501952655.5,30522,28.13,74546.8,13.17,-11.33,-10.89,0,*4F
1501952656.73,30523,28.13,74546.0,13.17,-11.41,-10.93,0,*40
1501952657.96,30524,28.13,74546.0,13.17,-11.45,-10.93,0,*43
1501952659.22,30525,28.13,74546.3,13.13,-11.51,-10.97,0,*47
1501952660.48,30526,28.13,74548.5,13.13,-11.51,-10.93,0,*40
1501952661.72,30527,28.13,74546.5,13.13,-11.45,-10.93,0,*44
1501952663.0,30528,28.13,74548.0,13.13,-11.51,-10.79,0,*4A
1501952664.22,30529,28.13,74546.8,13.11,-11.51,-10.93,0,*4D
1501952665.49,30530,28.13,74548.3,13.13,-11.45,-10.79,0,*46
1501952666.74,30531,28.13,74546.0,13.13,-11.51,-10.93,0,*46
1501952668.0,30532,28.13,74544.8,13.13,-11.63,-10.93,0,*44
1501952669.24,30533,28.13,74550.5,13.11,-11.63,-10.97,0,*43
1501952670.47,30534,28.13,74548.0,13.11,-11.73,-10.97,0,*45
1501952671.7,30535,28.13,74550.8,13.11,-11.63,-10.93,0,*41
1501952672.96,30536,28.13,74550.8,13.11,-11.63,-10.79,0,*46
1501952674.18,30537,28.13,74548.5,13.11,-11.73,-10.85,0,*45
1501952675.44,30538,28.13,74552.8,13.11,-11.59,-10.79,0,*41
1501952676.69,30539,28.13,74550.3,13.09,-11.51,-10.57,0,*4D
1501952677.97,30540,28.13,74552.0,13.09,-11.51,-10.71,0,*47
1501952679.24,30541,28.13,74550.8,13.09,-11.55,-10.57,0,*46
1501952680.47,30542,28.13,74548.0,13.07,-11.55,-10.49,0,*44
1501952681.69,30543,28.13,74550.5,13.07,-11.41,-10.35,0,*4B
1501952682.93,30544,28.13,74548.3,13.09,-11.23,-10.19,0,*48
1501952684.13,30545,28.13,74548.5,13.07,-11.19,-10.23,0,*47
1501952685.36,30546,28.13,74550.5,13.09,-11.01,-9.97,0,*74
1501952686.57,30547,28.13,74554.5,13.07,-11.15,-10.05,0,*4D
1501952687.8,30548,28.13,74554.0,13.07,-11.33,-10.09,0,*4A
1501952689.04,30549,28.13,74550.0,13.07,-11.33,-10.09,0,*4B
1501952690.29,30550,28.13,74552.3,13.09,-11.29,-9.97,0,*79
1501952691.53,30551,28.13,74554.3,13.09,-11.41,-10.01,0,*41
1501952692.79,30552,28.13,74554.5,13.09,-11.29,-9.97,0,*7B
1501952694.04,30553,28.13,74552.8,13.09,-11.37,-9.89,0,*7A
1501952695.3,30554,28.13,74554.5,13.09,-11.29,-9.89,0,*72
1501952696.5,30555,28.13,74556.3,13.07,-11.41,-9.79,0,*7C
1501952697.71,30556,28.13,74554.3,13.07,-11.41,-9.75,0,*73
1501952698.96,30557,28.13,74558.8,13.09,-11.37,-9.79,0,*71
1501952700.22,30558,28.13,74554.3,13.09,-11.29,-9.71,0,*79
1501952701.45,30559,28.13,74552.3,13.07,-11.29,-9.75,0,*72
1501952702.7,30560,28.13,74554.3,13.07,-11.33,-9.61,0,*76
1501952703.98,30561,28.13,74556.3,13.09,-11.37,-9.61,0,*7D
1501952705.21,30562,28.13,74556.8,13.07,-11.45,-9.61,0,*75
1501952706.47,30563,28.13,74556.3,13.07,-11.33,-9.53,0,*74
1501952707.7,30564,28.13,74556.8,13.07,-11.41,-9.49,0,*7D
1501952708.92,30565,28.13,74556.0,13.07,-11.33,-9.27,0,*71
1501952710.15,30566,28.13,74556.8,13.07,-11.19,-9.37,0,*7B
1501952711.38,30567,28.13,74556.8,13.09,-11.01,-9.05,0,*7C
1501952712.58,30568,28.13,74558.3,13.07,-11.01,-9.05,0,*7D
1501952713.79,30569,28.13,74558.8,13.07,-10.93,-8.85,0,*7F
1501952715.04,30570,28.13,74556.3,13.09,-10.71,-8.75,0,*7A
1501952716.26,30571,28.13,74560.0,13.07,-10.71,-8.71,0,*71
1501952717.51,30572,28.13,74556.0,13.09,-10.71,-8.75,0,*78
1501952718.76,30573,28.13,74558.5,13.09,-10.71,-8.75,0,*79
1501952719.98,30574,28.13,74558.0,13.07,-10.85,-8.81,0,*70
1501952721.17,30575,28.13,74558.8,13.07,-10.89,-8.93,0,*7E
1501952722.41,30576,28.13,74558.0,13.09,-10.97,-9.01,0,*76
1501952723.64,30577,28.13,74558.5,13.09,-10.97,-8.93,0,*7D
1501952724.89,30578,28.13,74558.3,13.09,-10.85,-8.81,0,*72
1501952726.1,30579,28.13,74558.0,13.09,-10.53,-8.75,0,*73
1501952727.32,30580,28.13,74554.3,13.09,-10.45,-8.63,0,*75
1501952728.6,30581,28.13,74558.0,13.09,-10.67,-8.81,0,*78
1501952729.82,30582,28.13,74556.3,13.11,-10.67,-8.75,0,*79
1501952731.07,30583,28.13,74552.0,13.09,-10.71,-8.93,0,*7E
1501952732.3,30584,28.13,74554.8,13.11,-10.67,-8.97,0,*73
1501952733.52,30585,28.13,74554.5,13.11,-10.75,-8.97,0,*71
1501952734.78,30586,28.13,74556.5,13.13,-10.67,-8.89,0,*7C
1501952736.01,30587,28.13,74554.0,13.11,-10.63,-9.01,0,*7A
1501952737.24,30588,28.13,74548.8,13.11,-10.67,-9.19,0,*78
1501952738.48,30589,28.13,74550.3,13.11,-10.63,-9.15,0,*71
1501952739.7,30590,28.13,74550.5,13.11,-10.49,-9.15,0,*71
1501952740.89,30591,28.13,74552.5,13.11,-10.49,-9.19,0,*7C
1501952742.09,30592,28.13,74552.5,13.11,-10.49,-9.19,0,*7F
1501952743.27,30593,28.13,74552.0,13.11,-10.53,-9.31,0,*7F
1501952744.53,30594,28.13,74552.3,13.11,-10.63,-9.45,0,*78
1501952745.78,30595,28.13,74548.0,13.11,-10.63,-9.53,0,*7E
1501952747.0,30596,28.13,74548.0,13.11,-10.75,-9.67,0,*7D
1501952748.24,30597,28.13,74554.3,13.11,-10.67,-9.71,0,*78
1501952749.46,30598,28.13,74550.3,13.11,-10.75,-9.79,0,*7C
1501952750.74,30599,28.13,74550.8,13.09,-10.71,-9.83,0,*75
1501952752.0,30600,28.13,74548.8,13.09,-10.67,-9.89,0,*7B
1501952753.26,30601,28.13,74548.3,13.09,-10.75,-10.01,0,*41
1501952754.53,30602,28.13,74550.3,13.09,-10.71,-10.01,0,*46
1501952755.73,30603,28.13,74546.0,13.07,-10.89,-10.45,0,*4E
1501952756.94,30604,28.13,74544.8,13.07,-10.93,-10.45,0,*42
1501952758.15,30605,28.13,74544.0,13.07,-10.89,-10.45,0,*48
1501952759.44,30606,28.13,74544.3,13.09,-10.71,-10.41,0,*46
1501952760.65,30607,28.13,74544.8,13.07,-10.89,-10.57,0,*49
1501952761.89,30608,28.13,74544.0,13.09,-10.97,-10.57,0,*47
1501952763.13,30609,28.13,74544.8,13.07,-11.01,-10.75,0,*46
1501952764.38,30610,28.13,74546.8,13.05,-11.07,-10.85,0,*45
1501952765.65,30611,28.13,74544.3,13.05,-11.07,-10.93,0,*43
1501952766.91,30612,28.13,74548.8,13.05,-11.07,-10.89,0,*4B
1501952768.2,30613,28.13,74548.5,13.05,-11.07,-11.07,0,*4D
1501952769.4,30614,28.13,74544.5,13.03,-11.23,-11.11,0,*4D
1501952770.66,30615,28.13,74548.3,13.05,-11.19,-11.07,0,*44
1501952771.87,30616,28.13,74548.3,13.03,-11.11,-11.11,0,*4E
1501952773.1,30617,28.13,74550.8,13.03,-11.45,-11.37,0,*4A
1501952774.35,30618,28.13,74554.0,13.03,-11.51,-11.37,0,*40
1501952775.58,30619,28.13,74550.3,13.03,-11.23,-11.37,0,*44
1501952776.81,30620,28.13,74550.3,13.03,-11.37,-11.45,0,*4E
1501952778.04,30621,28.13,74546.3,13.03,-11.51,-11.45,0,*4F
1501952779.31,30622,28.13,74546.8,12.99,-11.55,-11.55,0,*4B
1501952780.56,30623,28.13,74548.3,13.01,-11.37,-11.41,0,*4B
1501952781.85,30624,28.13,74550.3,13.01,-11.29,-11.37,0,*42
1501952783.07,30625,28.13,74548.5,12.99,-11.41,-11.41,0,*4C
1501952784.31,30626,28.13,74550.8,12.99,-11.29,-11.41,0,*41
1501952785.52,30627,28.13,74552.5,12.99,-11.23,-11.41,0,*4A
1501952786.76,30628,28.13,74550.8,12.99,-11.41,-11.51,0,*40
1501952788.0,30629,28.13,74550.5,13.01,-11.23,-11.41,0,*44
1501952789.26,30630,28.13,74550.5,12.99,-11.29,-11.37,0,*47
1501952790.52,30631,28.13,74552.5,13.01,-11.29,-11.41,0,*47
1501952791.76,30632,28.13,74550.5,12.99,-11.29,-11.41,0,*44
1501952793.0,30633,28.13,74546.5,12.99,-11.23,-11.37,0,*4E
1501952794.26,30634,28.13,74548.5,13.01,-11.41,-11.67,0,*48
1501952795.5,30635,28.13,74548.8,12.99,-11.41,-11.63,0,*4D
1501952796.76,30636,28.13,74546.5,12.99,-11.37,-11.51,0,*4E
1501952798.02,30637,28.13,74552.3,12.99,-11.51,-11.67,0,*4A
1501952799.28,30638,28.13,74550.0,12.99,-11.51,-11.67,0,*45
1501952800.54,30639,28.13,74548.8,12.99,-11.55,-11.77,0,*41
1501952801.79,30640,28.13,74548.3,12.99,-11.37,-11.51,0,*4F
1501952803.08,30641,28.13,74550.0,12.97,-11.55,-11.73,0,*44
1501952804.36,30642,28.13,74554.3,12.97,-11.59,-11.73,0,*4B
1501952805.65,30643,28.13,74550.8,12.97,-11.55,-11.73,0,*46
1501952806.93,30644,28.13,74550.0,12.97,-11.73,-11.93,0,*4B
1501952808.21,30645,28.13,74552.8,12.97,-11.73,-11.81,0,*49
1501952809.47,30646,28.13,74552.3,12.97,-11.45,-11.67,0,*47
1501952810.74,30647,28.13,74548.8,12.97,-11.45,-11.67,0,*46
1501952812.03,30648,28.13,74550.3,12.97,-11.33,-11.67,0,*48
1501952813.28,30649,28.13,74550.5,12.95,-11.33,-11.55,0,*4A
1501952814.54,30650,28.13,74554.8,12.95,-11.33,-11.55,0,*42
1501952815.77,30651,28.13,74552.0,12.97,-11.19,-11.45,0,*48
1501952817.02,30652,28.13,74554.0,12.95,-11.59,-11.73,0,*48
1501952818.31,30653,28.13,74556.8,12.97,-11.55,-11.67,0,*42
1501952819.56,30654,28.13,74558.0,12.95,-11.59,-11.81,0,*43
1501952820.85,30655,28.13,74552.0,12.97,-11.59,-11.93,0,*43
1501952822.11,30656,28.13,74552.3,12.95,-11.67,-11.73,0,*41
1501952823.36,30657,28.13,74554.3,12.95,-11.81,-11.93,0,*46
1501952824.61,30658,28.13,74552.3,12.95,-11.73,-11.85,0,*43
1501952825.84,30659,28.13,74552.5,12.95,-11.81,-12.03,0,*42
1501952827.11,30660,28.13,74552.8,12.91,-11.73,-11.89,0,*40
1501952828.39,30661,28.13,74552.5,12.91,-11.37,-11.59,0,*4C
1501952829.66,30662,28.13,74554.8,12.91,-11.33,-11.51,0,*43
1501952830.91,30663,28.13,74554.8,12.91,-11.19,-11.37,0,*4A
1501952832.18,30664,28.13,74554.5,12.91,-11.33,-11.51,0,*45
1501952833.43,30665,28.13,74550.5,12.91,-11.23,-11.59,0,*4D
1501952834.68,30666,28.13,74550.3,12.91,-11.11,-11.37,0,*47
1501952835.9,30667,28.13,74552.0,12.91,-11.19,-11.45,0,*4B
1501952837.16,30668,28.13,74554.3,12.95,-11.29,-11.55,0,*42
1501952838.4,30669,28.13,74552.5,12.95,-11.41,-11.55,0,*4D
1501952839.63,30670,28.13,74554.3,12.95,-11.41,-11.59,0,*49
1501952840.86,30671,28.13,74550.3,12.95,-11.41,-11.59,0,*48
1501952842.12,30672,28.13,74554.0,12.95,-11.55,-11.59,0,*4E
1501952843.37,30673,28.13,74552.3,12.95,-11.67,-11.81,0,*4B
1501952844.62,30674,28.13,74552.5,12.95,-11.73,-11.85,0,*4D
1501952845.87,30675,28.13,74552.8,12.95,-11.81,-12.11,0,*4F
1501952847.09,30676,28.13,74554.0,12.95,-11.81,-12.03,0,*4F
1501952848.37,30677,28.13,74546.5,12.91,-11.77,-11.89,0,*42
1501952849.65,30678,28.13,74552.3,12.91,-11.73,-11.97,0,*46
1501952850.88,30679,28.13,74552.0,12.89,-11.89,-12.03,0,*45
1501952852.13,30680,28.13,74550.5,12.89,-11.89,-12.15,0,*44
1501952853.41,30681,28.13,74550.8,12.91,-11.89,-11.97,0,*45
1501952854.66,30682,28.13,74552.8,12.89,-11.81,-12.11,0,*4A
1501952855.92,30683,28.13,74552.8,12.89,-11.77,-11.89,0,*40
1501952857.15,30684,28.13,74548.8,12.89,-11.81,-12.03,0,*4F
1501952858.4,30685,28.13,74546.0,12.89,-11.81,-11.93,0,*44
1501952859.68,30686,28.13,74546.3,12.91,-11.89,-12.15,0,*4B
1501952860.93,30687,28.13,74550.5,12.87,-12.11,-12.25,0,*4C
1501952862.21,30688,28.13,74552.5,12.87,-11.93,-12.11,0,*4D
1501952863.47,30689,28.13,74548.3,12.87,-11.89,-12.03,0,*44
1501952864.72,30690,28.13,74550.5,12.87,-11.81,-12.03,0,*44
1501952865.96,30691,28.13,74550.0,12.87,-11.81,-12.03,0,*45
1501952867.21,30692,28.13,74554.3,12.87,-11.81,-12.03,0,*46
1501952868.47,30693,28.13,74556.0,12.85,-11.93,-12.07,0,*42
1501952869.7,30694,28.13,74552.0,12.87,-12.03,-12.21,0,*49
1501952870.95,30695,28.13,74552.0,12.85,-11.97,-12.07,0,*40
1501952872.2,30696,28.13,74548.5,12.85,-11.67,-11.85,0,*45
1501952873.45,30697,28.13,74548.8,12.85,-11.93,-11.97,0,*4C
1501952874.71,30698,28.13,74548.3,12.85,-11.93,-11.97,0,*43
1501952875.96,30699,28.13,74546.5,12.85,-11.85,-11.97,0,*45
1501952877.2,30700,28.13,74546.8,12.85,-11.73,-11.81,0,*4A
1501952878.48,30701,28.13,74550.3,12.83,-11.63,-11.73,0,*41
1501952879.76,30702,28.13,74548.8,12.83,-11.59,-11.73,0,*4B
1501952881.01,30703,28.13,74548.8,12.81,-11.55,-11.67,0,*41
1501952882.28,30704,28.13,74550.8,12.83,-11.45,-11.63,0,*41
1501952883.55,30705,28.13,74550.3,12.83,-11.73,-11.77,0,*40
1501952884.82,30706,28.13,74550.5,12.83,-11.85,-11.97,0,*44
1501952886.1,30707,28.13,74548.5,12.83,-11.77,-11.97,0,*48
1501952887.37,30708,28.13,74550.3,12.83,-11.73,-11.85,0,*40
1501952888.63,30709,28.13,74546.5,12.81,-11.63,-11.77,0,*4F
1501952889.9,30710,28.13,74544.5,12.83,-11.59,-11.77,0,*4C
1501952891.16,30711,28.19,74550.5,12.81,-11.55,-11.67,0,*42
1501952892.44,30712,28.13,74548.0,12.83,-11.51,-11.63,0,*43
1501952893.71,30713,28.13,74550.0,12.83,-11.37,-11.59,0,*4B
1501952894.96,30714,28.13,74550.3,12.81,-11.51,-11.55,0,*42
1501952896.19,30715,28.13,74548.8,12.83,-11.23,-11.45,0,*45